Home   Weather   Lublin   Past weeks

Flag for Poland Past Weather in Lublin, Poland — Yesterday and Last 2 Weeks

Now
62 °F

Scattered clouds.


Feels Like: 62 °F
Forecast: 47 / 78 °F
Wind: 3 mph from North

Location: Lublin Radawiec

Current Time: May 27, 2017 at 12:13:35 pm

Latest Report: May 27, 2017 at 11:00 am


Visibility: 22 mi

Pressure: 30.21 "Hg

Humidity: 57%

Dew Point: 47 °F

Location of LublinLocation

Past Weather in Lublin — Graph

°F

Lublin Temperature Yesterday

Maximum temperature yesterday: 66 °F (at 4:00 pm)
Minimum temperature yesterday: 50 °F (at 5:00 am)
Average temperature yesterday: 57 °F

High & Low Weather Summary for the Past Weeks

 TemperatureHumidityPressure
High76 °F (May 20, 3:00 pm)99% (May 14, 4:00 am)30.40 "Hg (May 14, 4:00 am)
Low43 °F (May 15, 5:00 am)30% (May 20, 12:00 pm)29.77 "Hg (May 12, 11:00 am)
Average59 °F71%30.06 "Hg
* Reported May 12 10:00 am — May 27 10:00 am, Lublin. Weather by CustomWeather, © 2017

Note: Actual official high and low records may vary slightly from our data, if they occured in-between our weather recording intervals... More about our weather records

Advertising

Lublin Weather History for the Previous 24 Hours

Scroll right to see more
 ConditionsComfort  
Time TempWeatherWind HumidityBarometerVisibility
10:00 am
Sat, May 27
60 °FScattered clouds.2 mph64%30.20 "Hg22 mi
9:00 am59 °FPassing clouds.3 mph69%30.20 "Hg19 mi
8:00 am58 °FPassing clouds.2 mph75%30.19 "Hg25 mi
7:00 am55 °FPassing clouds.2 mph84%30.17 "Hg18 mi
6:00 am50 °FFog.1 mph99%30.17 "Hg7 mi
5:00 am48 °FFog.2 mph99%30.15 "Hg1 mi
4:00 am49 °FFog.2 mph99%30.13 "Hg1 mi
3:00 am50 °FFog.1 mph99%30.12 "Hg2 mi
2:00 am50 °FFog.1 mph97%30.11 "Hg2 mi
1:00 am50 °FFog.2 mph97%30.10 "Hg5 mi
12:00 am52 °FFog.2 mph97%30.09 "Hg5 mi
11:00 pm
Fri, May 26
51 °FPassing clouds.1 mph97%30.07 "Hg12 mi
10:00 pm52 °FPassing clouds.2 mph94%30.06 "Hg19 mi
9:00 pm54 °FPassing clouds.2 mph87%30.04 "Hg31 mi
8:00 pm59 °FSprinkles. Overcast.5 mph76%30.02 "Hg17 mi
7:00 pm63 °FOvercast.5 mph64%30.00 "Hg17 mi
5:00 pm65 °FPartly sunny.6 mph57%29.99 "Hg19 mi
4:00 pm66 °FPartly sunny.5 mph58%30.00 "Hg17 mi
3:00 pm64 °FScattered clouds.6 mph58%30.01 "Hg16 mi
2:00 pm64 °FPassing clouds.5 mph54%30.02 "Hg19 mi
1:00 pm64 °FScattered clouds.5 mph57%30.03 "Hg19 mi
12:00 pm62 °FPartly sunny.5 mph61%30.05 "Hg18 mi
Weather by CustomWeather, © 2017

See weather overviewHow to use our weather pages